Regional Weather Roundup
Issued by NWS

Home | Current Version | Previous Version | Text Only | Print | Product List | Glossary Off
Versions: 1 2 3 4 5 6 7 8 9 10 11 12 13 14 15 16 17 18 19 20 21 22 23 24 25 26 27 28 29 30 31 32 33 34 35 36 37 38 39 40 41 42 43 44 45 46 47 48 49 50

000
ASUS43 KTOP 291108
RWRKS

WEATHER ROUNDUP FOR KANSAS
NATIONAL WEATHER SERVICE GOODLAND KS
500 AM CST THU JAN 29 2015

NOTE:  "FAIR" INDICATES FEW OR NO CLOUDS BELOW 12,000 FEET WITH NO
SIGNIFICANT WEATHER AND/OR OBSTRUCTIONS TO VISIBILITY.

KSZ001>006-013>018-027>032-041>047-291200-
NORTHWEST KANSAS

CITY           SKY/WX    TMP DP  RH WIND       PRES   REMARKS
GOODLAND       CLEAR     30  26  85 N14       30.36R WCI  19
HAYS           CLEAR     37  25  60 N21G26    30.30R WCI  27
HILL CITY      CLEAR     35  28  75 N15       30.33R WCI  25
RUSSELL        PTCLDY    38  30  73 N22G31    30.27R WCI  27
$$

KSZ061>065-074>080-084>089-291200-
SOUTHWEST KANSAS

CITY           SKY/WX    TMP DP  RH WIND       PRES   REMARKS
DODGE CITY     MOCLDY    40  31  70 N21       30.29R WCI  30
ELKHART          N/A     40  28  62 NW12        N/A  WCI  33
GARDEN CITY    CLOUDY    38  31  76 N17       30.32R WCI  28
LIBERAL        MOCLDY    43  30  61 NW15      30.34R
PRATT          MOCLDY    41  32  70 N26G36    30.24R
$$

KSZ066>073-081>083-090>101-291200-
SOUTHEAST KANSAS

CITY           SKY/WX    TMP DP  RH WIND       PRES   REMARKS
CHANUTE        CLEAR     47  36  65 N20G32    30.11R
COFFEYVILLE    PTCLDY    51  33  50 N14       30.10R
HUTCHINSON     CLEAR     42  30  62 N25G37    30.21R
MEDICINE LODGE   N/A     47  34  60 N24G39    30.19R
NEWTON         CLOUDY    43  28  56 N33G41    30.18R
PARSONS        CLEAR     49  35  58 N15G21    30.10R
WICHITA INTL   PTCLDY    47  34  60 N22G28    30.17R
WICHITA JABRA  PTCLDY    45  34  65 N26G35    30.17R
WICHITA MCCONL CLEAR     46  35  63 N24G35    30.17R
WINFIELD       PTCLDY    49  32  52 N23G31    30.16R
$$

KSZ007>012-019>026-033>040-048>060-102>105-291200-
NORTHEAST KANSAS

CITY           SKY/WX    TMP DP  RH WIND       PRES   REMARKS
CONCORDIA      CLOUDY    39  30  70 N21G32    30.25R WCI  29
EMPORIA        CLOUDY    41  32  70 N26G36    30.17R
LAWRENCE       CLOUDY    40  31  70 NW30G40   30.14R WCI  28
MANHATTAN      CLOUDY    40  30  67 N13G23    30.23R WCI  32
MARYSVILLE     CLOUDY    37  30  75 N21G28    30.19R WCI  27
OLATHE IND     CLOUDY    39  32  76 NW29G37   30.11R WCI  27
OLATHE EXE     CLOUDY    40  34  79 N18G30    30.09R WCI  31
SALINA         CLOUDY    43  30  60 N25       30.25R
TOPEKA BILLARD CLOUDY    40  32  73 NW20G26   30.18R WCI  30
TOPEKA FORBES  CLOUDY    41  31  67 NW32G46   30.16R
$$



USA.gov is the U.S. government's official web portal to all federal, state and local government web resources and services.